Ramona, CA

4:24 PM PST on February 06, 2016 (GMT -0800)
Ramona

Weather History for KRNM - June, 2013

Change the Weather History Date:

Tuesday, June 18, 2013

  Actual Average Record
Temperature  
Mean Temperature 66 °F 68 °F  
Max Temperature 84 °F 83 °F 101 °F (2008)
Min Temperature 47 °F 52 °F 43 °F (1974)
Degree Days  
Heating Degree Days 0 1  
Month to date heating degree days 2 24  
Since 1 June heating degree days 2 24  
Since 1 July heating degree days 2344 2548  
Cooling Degree Days 1 3  
Month to date cooling degree days 35 35  
Year to date cooling degree days 83 62  
Since 1 June cooling degree days 35 35  
Growing Degree Days 15 (Base 50)    
Moisture  
Dew Point 50 °F    
Average Humidity 60    
Maximum Humidity 86    
Minimum Humidity 33    
Precipitation  
Precipitation 0.00 in 0.01 in 0.17 in (1982)
Month to date precipitation 0.00 0.11  
Year to date precipitation 4.50 11.32  
Since 1 July precipitation 8.14  
Snow  
Snow 0.00 in - - ()
Month to date snowfall 0.0  
Year to date snowfall 0.0  
Since 1 June snowfall  
Since 1 July snowfall 0.0  
Snow Depth 0.00 in    
Sea Level Pressure  
Sea Level Pressure 29.86 in    
Wind  
Wind Speed 6 mph (West)    
Max Wind Speed 15 mph    
Max Gust Speed 20 mph    
Visibility 10 miles    
Events      
T = Trace of Precipitation, MM = Missing Value Source: NWS Daily Summary

Daily Weather History Graph

Daily Weather History Graph

Search for Another Location

Airport or City:

Trip Planner

Search our weather history database for the weather conditions in past years. The results will help you decide how hot, cold, wet, or windy it might be!

Date:

Astronomy

Jun. 18, 2013 Rise Set
Actual Time 5:38 AM PDT 7:58 PM PDT
Civil Twilight 5:10 AM PDT 8:27 PM PDT
Nautical Twilight 4:34 AM PDT 9:02 PM PDT
Astronomical Twilight 3:56 AM PDT 9:41 PM PDT
Moon 2:59 PM PDT (6/18) 1:36 AM PDT (6/18)
Length of Visible Light 15h 17m
Length of Day
14h 20m
Waxing Gibbous, 72% of the Moon is Illuminated
Jun 18
Waxing Gibbous
Jun 23
Full
Jun 29
Last Quarter
Jul 8
New
Jul 15
First Quarter

Hourly Weather History & Observations

Time (PDT) Temp. Dew Point Humidity Pressure Visibility Wind Dir Wind Speed Gust Speed Precip Events Conditions
12:53 AM 55.0 °F 48.0 °F 77% 29.87 in 10.0 mi Calm Calm - N/A   Clear
1:53 AM 54.0 °F 46.9 °F 77% 29.86 in 10.0 mi Calm Calm - N/A   Clear
2:53 AM 53.1 °F 46.9 °F 80% 29.85 in 10.0 mi Calm Calm - N/A   Clear
3:53 AM 48.9 °F 45.0 °F 86% 29.86 in 10.0 mi Calm Calm - N/A   Clear
4:53 AM 48.9 °F 45.0 °F 86% 29.86 in 10.0 mi Calm Calm - N/A   Clear
5:53 AM 50.0 °F 46.0 °F 86% 29.88 in 7.0 mi Calm Calm - N/A   Clear
6:53 AM 57.0 °F 48.9 °F 74% 29.87 in 10.0 mi Calm Calm - N/A   Clear
7:53 AM 66.0 °F 48.9 °F 54% 29.88 in 10.0 mi Calm Calm - N/A   Clear
8:53 AM 75.9 °F 45.0 °F 33% 29.89 in 10.0 mi Calm Calm - N/A   Clear
9:53 AM 77.0 °F 51.1 °F 40% 29.88 in 10.0 mi NW 12.7 mph - N/A   Clear
10:53 AM 79.0 °F 54.0 °F 42% 29.89 in 10.0 mi WNW 9.2 mph - N/A   Clear
11:53 AM 82.0 °F 52.0 °F 35% 29.88 in 10.0 mi WNW 9.2 mph - N/A   Clear
12:53 PM 82.0 °F 52.0 °F 35% 29.88 in 10.0 mi West 13.8 mph - 0.01 in   Clear
1:53 PM 82.9 °F 50.0 °F 32% 29.87 in 10.0 mi WNW 9.2 mph 18.4 mph N/A   Clear
2:53 PM 82.0 °F 50.0 °F 33% 29.87 in 10.0 mi WNW 12.7 mph - N/A   Clear
3:53 PM 81.0 °F 52.0 °F 36% 29.86 in 10.0 mi West 12.7 mph - N/A   Clear
4:53 PM 77.0 °F 54.0 °F 45% 29.85 in 10.0 mi West 15.0 mph - N/A   Clear
5:53 PM 73.9 °F 54.0 °F 50% 29.85 in 10.0 mi West 11.5 mph - N/A   Clear
6:53 PM 71.1 °F 54.0 °F 55% 29.85 in 10.0 mi WNW 6.9 mph - N/A   Clear
7:53 PM 64.9 °F 55.0 °F 70% 29.85 in 10.0 mi West 8.1 mph - N/A   Clear
8:53 PM 60.1 °F 54.0 °F 80% 29.85 in 10.0 mi West 4.6 mph - N/A   Clear
9:53 PM 57.9 °F 55.0 °F 90% 29.86 in 10.0 mi West 4.6 mph - N/A   Clear
10:53 PM 57.0 °F 53.1 °F 87% 29.86 in 9.0 mi Calm Calm - N/A   Clear
11:53 PM 55.0 °F 51.1 °F 86% 29.84 in 10.0 mi Calm Calm - N/A   Clear